This demonstration page uses our WeatherBlox Daily Observations layout. Learn more.

Left ArrowRight Arrow

Hourly Observations for November 14, 2016

Temp ( °F °C ) Dew Point ( °F °C ) Humidity (%) Winds ( mph kmh ) Pressure ( in mb ) Visibility ( mi km ) Precip ( " mm )
12:59 am 00:59 Mostly Clear 38 3.3 35 1.7 89 89 ESE 3 6 30.15 1021 9 14 0.00 0.00
1:59 am 01:59 Partly Cloudy 37 2.8 34 1.1 89 89 Calm 30.15 1021 8 13 0.00 0.00
2:59 am 02:59 Mostly Cloudy 38 3.3 36 2.2 93 93 E 3 6 30.13 1020 9 14 0.00 0.00
3:59 am 03:59 Mostly Cloudy 42 5.6 41 5 96 96 Calm 30.13 1020 9 14 0.00 0.00
4:59 am 04:59 Mostly Cloudy 43 6.1 40 4.4 89 89 Calm 30.12 1020 10 16 0.00 0.00
5:59 am 05:59 Cloudy 47 8.3 44 6.7 90 90 Calm 30.12 1020 10 16 0.00 0.00
6:59 am 06:59 Cloudy 49 9.4 45 7.2 86 86 Calm 30.13 1020 10 16 0.00 0.00
7:59 am 07:59 Cloudy with Light Rain 50 10 47 8.3 89 89 S 3 6 30.13 1020 5 8 0.00 0.03
8:59 am 08:59 Cloudy with Light Rain 51 10.6 48 8.9 89 89 E 3 6 30.13 1020 6 10 0.02 0.51
9:59 am 09:59 Cloudy with Light Rain 54 12.2 48 8.9 80 80 NE 6 9 30.11 1020 10 16 0.00 0.03
10:59 am 10:59 Cloudy with Light Rain 55 12.8 51 10.6 87 87 ENE 8 13 30.08 1019 7 11 0.02 0.51
11:59 am 11:59 Cloudy 57 13.9 53 11.7 87 87 ENE 9 15 30.04 1017 9 14 0.02 0.51
12:59 pm 12:59 Cloudy 58 14.4 55 12.8 90 90 ENE 10 17 30.00 1016 9 14 0.00 0.00
1:59 pm 13:59 Mostly Cloudy 59 15 55 12.8 87 87 ENE 10 17 29.99 1016 10 16 0.00 0.00
2:32 pm 14:32 Mostly Cloudy 60 15.6 56 13.3 86 86 NNE 10 17 29.97 1015 10 16 0.00 0.00
2:46 pm 14:46 Cloudy 59 15 55 12.8 87 87 NNE 8 13 30.00 1016 10 16 0.00 0.00
2:59 pm 14:59 Cloudy 60 15.6 56 13.3 86 86 NNE 9 15 29.97 1015 10 16 0.00 0.00
3:59 pm 15:59 Cloudy 58 14.4 55 12.8 90 90 NNE 10 17 29.96 1015 10 16 0.00 0.00
4:59 pm 16:59 Cloudy 58 14.4 54 12.2 87 87 NNE 9 15 29.96 1014 10 16 0.00 0.00
5:59 pm 17:59 Cloudy 57 13.9 54 12.2 90 90 N 14 22 29.96 1015 10 16 0.00 0.00
6:59 pm 18:59 Cloudy 56 13.3 53 11.7 90 90 N 13 20 29.96 1015 10 16 0.00 0.00
7:59 pm 19:59 Cloudy 55 12.8 53 11.7 93 93 N 9 15 29.95 1014 9 14 0.00 0.00
8:06 pm 20:06 Cloudy 55 12.8 53 11.7 93 93 N 12 19 29.94 1014 9 14 0.00 0.00
8:59 pm 20:59 Cloudy 55 12.8 52 11.1 90 90 N 10 17 29.94 1014 9 14 0.00 0.00
9:20 pm 21:20 Cloudy 54 12.2 51 10.6 90 90 NNW 13 20 29.94 1014 9 14 0.00 0.00
9:52 pm 21:52 Cloudy with Rain 53 11.7 51 10.6 93 93 NNW 13 20 29.94 1014 3 4 0.03 0.76
9:59 pm 21:59 Cloudy with Light Rain 53 11.7 51 10.6 93 93 NNW 8 13 29.94 1014 3 5 0.03 0.76
10:09 pm 22:09 Cloudy with Mist and Fog 54 12.2 52 11.1 93 93 NNW 8 13 29.94 1014 6 10 0.00 0.03
10:34 pm 22:34 Cloudy with Mist and Fog 54 12.2 52 11.1 93 93 NNW 6 9 29.94 1014 4 6 0.00 0.03
10:59 pm 22:59 Cloudy 54 12.2 53 11.7 97 97 N 9 15 29.93 1013 7 11 0.00 0.03
11:59 pm 23:59 Cloudy 55 12.8 53 11.7 93 93 N 8 13 29.92 1013 9 14 0.00 0.00

Powered by AerisWeather